• En España
  • Lista de países
  • Para 7 días
  • Temperatura del agua
  • Mapa Satelital
  • El tiempo en el mapa
  • Informadores
  • user-avatar
    Iniciar sesión

    Tiempo cada hora Shali

    Hoy, 21 Junio, Jueves

    Tiempo Temperatura Precipitaciones Viento Presión Humedad
    00:00 +12°C° 0 mm 4 mps 744 mmHg 76%
    01:00 +12°C° 0 mm 5 mps 744 mmHg 76%
    02:00 +12°C° 0 mm 5 mps 744 mmHg 76%
    03:00 +10°C° 0 mm 5 mps 744 mmHg 81%
    04:00 +12°C° 0 mm 5 mps 744 mmHg 80%
    05:00 +11°C° 0 mm 6 mps 744 mmHg 79%
    06:00 +13°C° 0 mm 6 mps 744 mmHg 79%
    07:00 +14°C° 0 mm 7 mps 744 mmHg 74%
    08:00 +16°C° 0 mm 8 mps 744 mmHg 69%
    09:00 +16°C° 0 mm 9 mps 744 mmHg 64%
    10:00 +17°C° 0 mm 9 mps 744 mmHg 61%
    11:00 +18°C° 0 mm 10 mps 744 mmHg 58%
    12:00 +19°C° 0 mm 10 mps 744 mmHg 56%
    13:00 +19°C° 0 mm 9 mps 744 mmHg 57%
    14:00 +19°C° 0 mm 9 mps 744 mmHg 59%
    15:00 +20°C° 0 mm 7 mps 743 mmHg 61%
    16:00 +18°C° 0 mm 7 mps 744 mmHg 64%
    17:00 +19°C° 0 mm 6 mps 744 mmHg 66%
    18:00 +17°C° 0 mm 6 mps 744 mmHg 68%
    19:00 +17°C° 0 mm 5 mps 744 mmHg 68%
    20:00 +16°C° 0 mm 5 mps 745 mmHg 67%
    21:00 +15°C° 0 mm 5 mps 745 mmHg 66%
    22:00 +15°C° 0 mm 6 mps 745 mmHg 65%
    23:00 +15°C° 0 mm 6 mps 745 mmHg 63%

    Mañana, 22 Junio, Viernes

    Tiempo Temperatura Precipitaciones Viento Presión Humedad
    00:00 +14°C° 0 mm 6 mps 745 mmHg 62%
    01:00 +14°C° 0 mm 6 mps 746 mmHg 62%
    02:00 +14°C° 0 mm 6 mps 746 mmHg 63%
    03:00 +13°C° 0 mm 6 mps 747 mmHg 64%
    04:00 +13°C° 0 mm 6 mps 747 mmHg 67%
    05:00 +14°C° 0 mm 6 mps 748 mmHg 70%
    06:00 +14°C° 0 mm 6 mps 748 mmHg 73%
    07:00 +15°C° 0 mm 6 mps 748 mmHg 69%
    08:00 +17°C° 0 mm 7 mps 748 mmHg 65%
    09:00 +18°C° 0 mm 7 mps 749 mmHg 61%
    10:00 +20°C° 0 mm 7 mps 749 mmHg 58%
    11:00 +21°C° 0 mm 7 mps 749 mmHg 56%
    12:00 +22°C° 0 mm 7 mps 750 mmHg 53%
    13:00 +22°C° 0 mm 6 mps 750 mmHg 53%
    14:00 +23°C° 0 mm 6 mps 750 mmHg 53%
    15:00 +23°C° 0 mm 5 mps 750 mmHg 53%
    16:00 +23°C° 0 mm 4 mps 750 mmHg 57%
    17:00 +22°C° 0 mm 4 mps 750 mmHg 62%
    18:00 +22°C° 0 mm 3 mps 750 mmHg 66%
    19:00 +20°C° 0 mm 2 mps 750 mmHg 70%
    20:00 +18°C° 0 mm 2 mps 750 mmHg 73%
    21:00 +17°C° 0 mm 2 mps 751 mmHg 77%
    22:00 +16°C° 0 mm 2 mps 751 mmHg 79%
    23:00 +16°C° 0 mm 2 mps 751 mmHg 82%

    Pasado mañana, 23 Junio, Sábado

    Tiempo Temperatura Precipitaciones Viento Presión Humedad
    00:00 +15°C° 0 mm 2 mps 751 mmHg 85%
    01:00 +15°C° 0 mm 2 mps 751 mmHg 86%
    02:00 +15°C° 0 mm 2 mps 751 mmHg 88%
    03:00 +15°C° 0 mm 2 mps 752 mmHg 90%
    04:00 +16°C° 0 mm 2 mps 752 mmHg 88%
    05:00 +18°C° 0 mm 2 mps 752 mmHg 87%
    06:00 +19°C° 0 mm 2 mps 752 mmHg 85%
    07:00 +20°C° 0 mm 2 mps 752 mmHg 81%
    08:00 +23°C° 0 mm 2 mps 752 mmHg 77%
    09:00 +25°C° 0 mm 2 mps 752 mmHg 73%
    10:00 +26°C° 0,1 mm 3 mps 752 mmHg 69%
    11:00 +27°C° 0,1 mm 3 mps 752 mmHg 66%
    12:00 +28°C° 0,1 mm 3 mps 751 mmHg 62%
    13:00 +28°C° 0,2 mm 3 mps 751 mmHg 62%
    14:00 +28°C° 0,2 mm 3 mps 751 mmHg 63%
    15:00 +29°C° 0,2 mm 3 mps 751 mmHg 63%
    16:00 +28°C° 0,3 mm 3 mps 751 mmHg 68%
    17:00 +27°C° 0,3 mm 2 mps 751 mmHg 73%
    18:00 +27°C° 0,3 mm 2 mps 751 mmHg 78%
    19:00 +25°C° 0 mm 2 mps 751 mmHg 81%
    20:00 +24°C° 0 mm 1 mps 751 mmHg 85%
    21:00 +23°C° 0 mm 1 mps 751 mmHg 89%
    22:00 +22°C° 0 mm 1 mps 751 mmHg 89%
    23:00 +22°C° 0 mm 1 mps 751 mmHg 90%

    24 Junio, Domingo

    Tiempo Temperatura Precipitaciones Viento Presión Humedad
    00:00 +21°C° 0 mm 1 mps 752 mmHg 91%
    01:00 +21°C° 0 mm 1 mps 752 mmHg 91%
    02:00 +21°C° 0 mm 1 mps 752 mmHg 92%
    03:00 +21°C° 0 mm 1 mps 752 mmHg 93%
    04:00 +22°C° 0 mm 1 mps 752 mmHg 90%
    05:00 +23°C° 0 mm 1 mps 752 mmHg 88%
    06:00 +24°C° 0 mm 1 mps 752 mmHg 86%
    07:00 +25°C° 0 mm 1 mps 753 mmHg 81%
    08:00 +26°C° 0 mm 1 mps 753 mmHg 77%
    09:00 +28°C° 0 mm 1 mps 753 mmHg 73%
    10:00 +29°C° 0,3 mm 1 mps 753 mmHg 70%
    11:00 +29°C° 0,3 mm 1 mps 753 mmHg 67%
    12:00 +30°C° 0,3 mm 1 mps 753 mmHg 64%
    13:00 +30°C° 0,6 mm 1 mps 753 mmHg 63%
    14:00 +30°C° 0,6 mm 1 mps 753 mmHg 62%
    15:00 +31°C° 0,6 mm 1 mps 753 mmHg 61%
    16:00 +30°C° 0,1 mm 1 mps 753 mmHg 64%
    17:00 +30°C° 0,1 mm 1 mps 753 mmHg 68%
    18:00 +30°C° 0,1 mm 1 mps 753 mmHg 71%
    19:00 +28°C° 0 mm 1 mps 753 mmHg 75%
    20:00 +26°C° 0 mm 1 mps 753 mmHg 79%
    21:00 +25°C° 0 mm 1 mps 753 mmHg 83%
    22:00 +24°C° 0,1 mm 1 mps 754 mmHg 85%
    23:00 +24°C° 0,1 mm 1 mps 754 mmHg 86%

    25 Junio, Lunes

    Tiempo Temperatura Precipitaciones Viento Presión Humedad
    00:00 +23°C° 0,1 mm 1 mps 754 mmHg 88%
    01:00 +23°C° 0,1 mm 1 mps 754 mmHg 88%
    02:00 +22°C° 0,1 mm 1 mps 754 mmHg 89%
    03:00 +22°C° 0,1 mm 1 mps 754 mmHg 90%
    04:00 +23°C° 0 mm 1 mps 754 mmHg 87%
    05:00 +24°C° 0 mm 1 mps 754 mmHg 84%
    06:00 +25°C° 0 mm 1 mps 755 mmHg 82%
    07:00 +26°C° 0,2 mm 1 mps 755 mmHg 77%
    08:00 +28°C° 0,2 mm 1 mps 754 mmHg 73%
    09:00 +29°C° 0,2 mm 1 mps 754 mmHg 69%
    10:00 +29°C° 0,5 mm 1 mps 754 mmHg 66%
    11:00 +30°C° 0,5 mm 1 mps 754 mmHg 63%
    12:00 +31°C° 0,5 mm 1 mps 754 mmHg 60%
    13:00 +30°C° 0,7 mm 2 mps 754 mmHg 61%
    14:00 +30°C° 0,7 mm 2 mps 754 mmHg 63%
    15:00 +30°C° 0,7 mm 2 mps 754 mmHg 64%
    16:00 +30°C° 0 mm 1 mps 754 mmHg 66%
    17:00 +30°C° 0 mm 1 mps 754 mmHg 68%
    18:00 +30°C° 0 mm 1 mps 754 mmHg 70%
    19:00 +28°C° 0,4 mm 1 mps 755 mmHg 72%
    20:00 +26°C° 0,4 mm 1 mps 755 mmHg 75%
    21:00 +25°C° 0,4 mm 1 mps 755 mmHg 78%
    22:00 +24°C° 0 mm 1 mps 755 mmHg 80%
    23:00 +23°C° 0 mm 2 mps 755 mmHg 82%

    26 Junio, Martes

    Tiempo Temperatura Precipitaciones Viento Presión Humedad
    00:00 +23°C° 0 mm 2 mps 755 mmHg 84%
    01:00 +21°C° 0,2 mm 2 mps 755 mmHg 86%
    02:00 +21°C° 0,2 mm 2 mps 755 mmHg 87%
    03:00 +20°C° 0,2 mm 2 mps 756 mmHg 88%
    04:00 +21°C° 0,2 mm 2 mps 756 mmHg 87%
    05:00 +23°C° 0,2 mm 2 mps 756 mmHg 85%
    06:00 +22°C° 0,2 mm 3 mps 756 mmHg 84%
    07:00 +25°C° 0,1 mm 3 mps 756 mmHg 80%
    08:00 +26°C° 0,1 mm 3 mps 756 mmHg 77%
    09:00 +27°C° 0,1 mm 4 mps 756 mmHg 73%
    10:00 +28°C° 0,1 mm 4 mps 756 mmHg 69%
    11:00 +29°C° 0,1 mm 3 mps 756 mmHg 65%
    12:00 +30°C° 0,1 mm 3 mps 756 mmHg 60%
    13:00 +30°C° 0 mm 3 mps 756 mmHg 60%
    14:00 +30°C° 0 mm 3 mps 756 mmHg 60%
    15:00 +30°C° 0 mm 3 mps 757 mmHg 59%
    16:00 +30°C° 0 mm 3 mps 757 mmHg 64%
    17:00 +29°C° 0 mm 2 mps 757 mmHg 68%
    18:00 +29°C° 0 mm 2 mps 757 mmHg 72%
    19:00 +27°C° 0 mm 2 mps 757 mmHg 77%
    20:00 +25°C° 0 mm 2 mps 757 mmHg 81%
    21:00 +24°C° 0 mm 2 mps 757 mmHg 85%
    22:00 +23°C° 0 mm 2 mps 757 mmHg 87%
    23:00 +21°C° 0 mm 2 mps 757 mmHg 89%
    Mostrar más